Location: Barrio Las Umbrías
(40.4173°N, 4.8685°W)
Time: 04:02:06
(UTC+00:00)

Daily predictions for brighter satellites

Satellite Brightness Start Highest point End
(mag) Time Altitude Azimuth Time Altitude Azimuth Time Altitude Azimuth
Cosmos 2082 Rocket 3.5 00:07:01 29° E 00:07:01 29° E 00:11:00 10° NE
Cosmos 1833 Rocket 2.7 00:08:10 71° WNW 00:08:10 71° WNW 00:13:42 10° NNE
Cosmos 724 4.3 00:12:02 69° ENE 00:12:02 69° ENE 00:17:22 10° NE
Cosmos 1417 Rocket 4.4 00:11:31 10° N 00:17:51 80° W 00:18:02 79° WSW
Cosmos 1140 Rocket 3.8 00:22:28 63° NW 00:22:28 63° NW 00:27:13 10° NNE
ATLAS CENTAUR R/B 4.4 00:11:00 10° NW 00:25:00 77° NE 00:31:03 28° SE
USA 267 3.5 00:21:27 10° NE 00:27:55 66° NW 00:30:21 40° WSW
GP-B 4.0 00:31:51 10° N 00:35:02 47° N 00:35:02 47° N
ALOS 2 4.5 00:38:41 22° WNW 00:38:41 22° WNW 00:40:54 10° NW
H-2A R/B 3.1 00:35:39 10° N 00:38:59 43° NNW 00:38:59 43° NNW
NOSS 3-4 (A) 4.1 00:36:31 10° NNW 00:43:30 65° NE 00:47:10 34° ESE
NOSS 3-4 (C) 4.2 00:36:38 10° NNW 00:43:35 65° NE 00:47:19 33° ESE
Cosmos 2251 Rocket 3.7 00:44:26 67° NW 00:44:26 67° NW 00:49:15 10° NNE
Cosmos 407 Rocket 3.8 00:44:27 62° NW 00:44:27 62° NW 00:49:22 10° NNE
S3M 4.2 00:38:17 10° NNW 00:44:33 60° W 00:44:46 59° WSW
Cosmos 2315 Rocket 3.9 00:43:48 10° N 00:50:07 80° W 00:50:26 77° SW
Cosmos 1190 Rocket 4.1 00:51:10 70° NE 00:51:10 70° NE 00:55:56 10° NNE
Cosmos 2285 Rocket 4.4 00:51:49 47° W 00:52:44 50° WNW 00:58:53 10° N
Cosmos 1763 Rocket 3.6 00:53:04 10° NNW 00:58:19 69° ENE 00:58:19 69° ENE
USA 234 3.5 00:56:31 17° ESE 01:01:42 66° NE 01:08:11 10° NW
Cosmos 1862 Rocket 4.3 01:04:13 49° NNE 01:04:13 49° NNE 01:07:26 10° N
Meteor 1-23 Rocket 4.3 01:03:41 63° WNW 01:03:41 63° WNW 01:09:13 10° N
Cosmos 1953 4.3 01:02:33 10° NNE 01:05:20 22° ENE 01:05:20 22° ENE
Cosmos 1697 Rocket 3.4 01:01:29 10° NW 01:05:44 40° WNW 01:05:44 40° WNW
Cosmos 1980 Rocket 2.0 01:08:18 10° NNW 01:14:01 85° WSW 01:14:01 85° WSW
Cosmos 540 Rocket 3.5 01:11:38 10° NNW 01:16:49 72° ENE 01:16:52 72° ENE
COSMOS 2406 3.1 01:19:32 76° WSW 01:19:50 79° WNW 01:25:38 10° NNE
Cosmos 1244 Rocket 4.3 01:20:19 73° SSW 01:20:56 85° W 01:27:09 10° N
Cosmos 1356 Rocket 4.4 01:22:17 44° N 01:22:17 44° N 01:25:12 10° N
ADEOS II 4.3 01:19:37 10° ENE 01:22:25 14° E 01:24:13 12° ESE
Lacrosse 5 rocket 3.9 01:21:25 10° NNW 01:24:27 20° NNE 01:27:24 10° ENE
Cosmos 2369 3.5 01:19:21 10° NNW 01:25:06 90° WSW 01:25:30 79° SSE
IDEFIX/ARIANE 42P 3.6 01:22:58 10° NNE 01:27:44 34° E 01:28:28 33° ESE
Okean 1-7 3.5 01:30:04 59° NNE 01:30:04 59° NNE 01:33:39 10° N
Meteor 2-10 Rocket 4.1 01:25:12 10° NNW 01:30:39 49° W 01:30:39 49° W
Meteor 1-16 Rocket 4.2 01:27:19 10° N 01:33:03 83° E 01:33:51 67° SSE
Okean 3 4.4 01:34:53 41° NNW 01:34:53 41° NNW 01:37:52 10° N
Cosmos 1315 Rocket 3.7 01:39:37 45° NE 01:39:37 45° NE 01:42:39 10° NNE
SJ 16-02 3.4 01:39:50 17° ESE 01:40:13 18° E 01:43:06 10° NE
Helios 1A Rocket 4.0 01:43:06 37° NW 01:43:06 37° NW 01:45:34 10° NNW
SL-16 R/B 3.3 01:39:03 10° N 01:44:24 41° ENE 01:49:03 13° SE
Cosmos 1850 Rocket 4.3 01:46:14 53° SE 01:46:49 56° ESE 01:51:59 10° NNE
Cosmos 2082 Rocket 3.1 01:48:50 34° W 01:49:59 38° WNW 01:55:18 10° N
Cosmos 1709 Rocket 4.5 01:49:42 37° SSE 01:51:54 55° E 01:58:05 10° NNE
Cosmos 1741 Rocket 4.2 01:51:18 54° SE 01:51:56 59° ESE 01:57:06 10° NNE
SL-16 R/B 4.4 01:50:08 10° ESE 01:55:13 27° ENE 02:00:19 10° N
Cosmos 1386 Rocket 4.5 01:55:08 55° SSW 01:56:38 79° W 02:03:05 10° N
Cosmos 1782 Rocket 4.2 01:54:36 10° N 01:58:51 48° E 01:59:39 42° ESE
Cosmos 1908 Rocket 3.5 01:55:12 10° N 01:59:24 77° NW 01:59:24 77° NW
CZ-2D R/B 2.7 01:55:50 10° NNE 02:01:10 51° E 02:02:41 40° SSE
Cosmos 968 Rocket 3.9 02:02:10 45° SE 02:03:05 51° ESE 02:08:03 10° NNE
Cosmos 2237 4.5 01:58:35 10° NNW 02:04:19 67° ENE 02:07:48 24° SE
Genesis I 4.3 02:05:38 33° E 02:05:38 33° E 02:08:08 10° NE
Cosmos 1455 3.1 02:02:48 10° N 02:05:04 38° NNW 02:05:04 38° NNW
Cosmos 2360 Rocket 3.9 02:01:21 10° N 02:06:20 30° ENE 02:11:17 10° ESE
DELTA 2 R/B (1) 3.4 02:06:58 45° W 02:08:46 83° S 02:14:20 10° E
MSX 3.8 02:08:27 10° NNE 02:14:12 79° ESE 02:16:00 46° S
Cosmos 841 Rocket 3.4 02:09:52 10° NNW 02:15:06 79° WSW 02:16:20 53° S
Resurs 1-4 Rocket 2.1 02:10:21 10° NNE 02:15:37 74° ESE 02:17:04 48° S
H-2A R/B 3.3 02:15:52 10° N 02:19:49 71° WNW 02:19:49 71° WNW
ATLAS CENTAUR R/B 4.5 02:10:39 10° NW 02:21:17 35° WSW 02:23:12 33° SW
OAO 3 Rocket 3.8 02:24:07 40° SSE 02:24:07 40° SSE 02:27:53 10° ESE
Meteor 1-4 Rocket 4.4 02:25:17 17° NW 02:25:17 17° NW 02:26:21 10° NNW
FENGYUN 3A 4.2 02:19:48 10° NNE 02:25:03 52° E 02:27:27 30° SSE
Cosmos 2278 3.6 02:20:44 10° NNW 02:26:26 71° WSW 02:28:37 38° S
COBE Rocket 4.0 02:21:47 10° N 02:26:38 62° WNW 02:27:39 50° SW
CZ-2C R/B 2.5 02:29:15 34° SSE 02:31:34 88° E 02:36:46 10° NNW
Cosmos 2242 Rocket 3.5 02:30:52 57° S 02:31:46 88° E 02:36:15 10° N
Timation 1 Rocket 4.3 02:32:20 42° SW 02:34:27 76° WNW 02:40:26 10° NNE
Cosmos 1745 Rocket 4.4 02:33:16 36° WSW 02:35:09 46° WNW 02:41:09 10° N
Cosmos 2333 Rocket 3.1 02:33:55 10° NNW 02:39:28 49° ENE 02:45:01 10° SE
SL-27 R/B 2.6 02:40:26 52° NE 02:40:26 52° NE 02:42:42 10° NNE
Cosmos 2098 Rocket 4.2 02:35:27 10° N 02:40:45 60° E 02:46:36 11° SSE
Cosmos 1953 4.0 02:38:19 10° NW 02:40:27 20° WNW 02:40:27 20° WNW
Cosmos 1814 Rocket 4.4 02:38:18 10° NNW 02:43:30 64° ENE 02:48:42 10° SSE
Cosmos 1242 Rocket 3.4 02:44:54 29° NW 02:44:54 29° NW 02:46:46 10° N
Cosmos 2322 Rocket 2.3 02:38:27 10° NNW 02:44:08 78° ENE 02:49:48 10° SSE
USA 234 3.7 02:43:44 33° SSW 02:44:54 35° SW 02:50:50 10° WNW
SL-8 R/B 3.5 02:41:27 10° WNW 02:46:12 66° SW 02:50:56 10° SE
Meteor 2-5 Rocket 4.0 02:43:00 26° S 02:46:24 71° E 02:52:20 10° NNE
SL-4 R/B 2.8 02:47:25 35° SSE 02:48:18 40° SE 02:52:27 10° ENE
NPP 4.2 02:45:04 10° N 02:50:08 43° WNW 02:52:03 31° WSW
Cosmos 1408 2.9 02:53:36 38° NW 02:53:36 38° NW 02:56:01 10° N
Cosmos 2074 Rocket 4.5 02:48:44 15° SSE 02:53:44 57° E 02:59:48 10° NNE
Cosmos 1300 Rocket 3.9 02:52:29 10° NNW 02:56:35 44° W 02:57:22 40° WSW
Tiangong -0.3 03:00:18 20° SE 03:00:18 20° SE 03:02:16 10° E
Cosmos 1833 4.1 02:58:20 31° SSW 03:01:13 86° WNW 03:06:54 10° NNE
ADEOS II 2.1 02:57:16 10° N 03:02:29 67° WNW 03:05:04 30° SSW
Lacrosse 5 rocket 1.0 02:59:11 10° NW 03:03:12 70° SW 03:07:01 10° SE
IDEFIX/ARIANE 42P 3.7 03:02:37 10° N 03:07:07 29° WNW 03:09:14 22° WSW
ALOS 2.3 03:03:08 10° NNE 03:07:47 80° ESE 03:10:34 24° S
Cosmos 2184 Rocket 4.1 03:06:43 15° S 03:11:52 77° E 03:18:09 10° N
Cosmos 1378 Rocket 3.5 03:10:03 24° S 03:12:34 82° E 03:16:52 10° N
Cosmos 405 Rocket 3.8 03:11:18 10° N 03:14:44 41° ENE 03:18:11 10° SSE
SJ 16-02 2.1 03:16:36 27° WSW 03:18:14 37° WNW 03:22:16 10° N
ATLAS CENTAUR R/B 3.1 03:16:00 11° SSE 03:18:19 19° ESE 03:20:53 10° ENE
CZ-2C R/B 3.9 03:15:56 10° NNE 03:20:09 31° E 03:24:15 10° SSE
Envisat 3.7 03:15:49 10° NNE 03:20:45 50° E 03:25:39 10° S
Okean 1 Rocket 4.2 03:17:59 10° N 03:22:08 43° ENE 03:26:14 10° SSE
Cosmos 2154 Rocket 4.1 03:17:10 11° S 03:23:06 76° E 03:29:19 10° N
UNK 3.7 03:19:51 10° SSE 03:24:29 87° ENE 03:29:09 10° NNW
CZ-2C R/B 4.0 03:20:41 10° N 03:26:02 39° WNW 03:29:26 20° SW
Cosmos 839 Rocket 4.1 03:20:11 10° NNW 03:27:12 89° WSW 03:33:21 10° SSE
SL-16 R/B 3.1 03:23:31 10° NW 03:28:15 28° WSW 03:30:47 20° SW
ATLAS 2AS CENTAUR R/B 3.2 03:25:04 10° NNW 03:31:49 61° NE 03:38:20 10° SE
Meteor 1-28 Rocket 3.9 03:34:05 24° SW 03:35:19 31° W 03:38:31 10° NNW
Cosmos 2333 4.2 03:29:56 10° NNW 03:35:40 76° WSW 03:41:24 10° SSE
SL-16 R/B 2.8 03:32:23 10° S 03:38:25 51° W 03:44:32 10° NNW
CZ-2D R/B 3.7 03:36:41 10° NNW 03:40:45 22° WNW 03:43:59 13° WSW
Cosmos 2219 Rocket 2.2 03:36:00 10° NNW 03:41:41 88° ENE 03:47:21 10° SSE
BREEZE-M DEB (TANK) 3.8 03:39:56 10° NW 03:42:27 22° NNE 03:44:13 10° ENE
Cosmos 2181 Rocket 4.5 03:39:04 10° NNW 03:44:57 42° W 03:50:41 10° SSW
Thor Agena Rocket 4.4 03:41:33 10° NNE 03:46:37 49° E 03:51:41 10° S
RESURS DK-1 2.5 03:44:16 10° NW 03:48:12 49° WSW 03:52:07 10° S
CZ-4 R/B 3.8 03:45:20 10° NNE 03:50:02 85° WNW 03:54:49 10° SSW
COSMOS 2428 3.8 03:44:50 10° NNW 03:50:20 49° ENE 03:55:50 10° SE
Cosmos 2360 Rocket 2.7 03:45:09 10° NW 03:50:22 39° WSW 03:55:34 10° S
Resurs 1-4 Rocket 4.0 03:51:55 10° NNW 03:54:46 15° WNW 03:57:35 10° W
DELTA 2 R/B (1) 3.7 03:49:37 10° W 03:55:02 54° SSW 04:00:25 10° SE
Cosmos 1975 Rocket 4.4 03:52:29 10° SSE 03:56:28 39° E 04:00:29 10° NNE
SL-24 DEB 4.5 03:54:24 10° N 03:58:56 71° E 04:03:25 10° S
BREEZE-M DEB (TANK) 4.1 03:59:38 10° NNW 04:01:40 29° NE 04:05:39 10° ESE
Cosmos 2327 Rocket 4.5 03:59:16 10° S 04:05:28 82° W 04:11:37 10° N
OAO 3 Rocket 4.1 04:01:51 10° WSW 04:06:06 30° SSW 04:10:20 10° SE
H-2A R/B 3.8 04:01:33 10° NNE 04:06:30 35° E 04:11:24 10° SSE
Geosat 4.0 04:03:32 10° SSE 04:08:29 64° WSW 04:13:28 10° NNW
Cosmos 1825 2.9 04:06:40 12° SW 04:09:26 30° WNW 04:12:31 10° NNW
Cosmos 2227 Rocket 4.5 04:06:01 10° SSE 04:10:15 22° E 04:14:31 10° NE
Cosmos 1503 Rocket 4.3 04:05:01 10° S 04:10:20 74° ESE 04:15:42 10° NNE
PAYLOAD A 3.9 04:06:47 10° NNE 04:11:37 88° WNW 04:16:35 10° SSW
ASTEX 1 3.4 04:06:51 10° S 04:11:47 76° W 04:16:43 10° N
Cosmos 1892 3.9 04:13:16 10° SW 04:16:03 22° WNW 04:18:52 10° NNW
YAOGAN 6 2.4 04:14:36 10° N 04:17:51 59° WNW 04:21:04 10° SSW
Cosmos 1025 Rocket 3.3 04:16:25 10° SSW 04:20:41 52° W 04:24:59 10° N
Cosmos 371 Rocket 3.3 04:18:18 10° SSW 04:23:03 70° WNW 04:27:51 10° NNE
Cosmos 2333 Rocket 3.3 04:18:58 10° NW 04:23:21 23° WSW 04:27:45 10° SSW
Cosmos 1455 Rocket 3.1 04:19:11 10° N 04:23:34 87° E 04:27:58 10° S
Meteor 1-21 Rocket 4.4 04:22:06 10° SSW 04:27:59 70° W 04:33:54 10° N
